Temperature
26 26 26 26 25 25 24 24 23 22 22 21 21 20 20 20 19 19 19 19 18 18 18 18 17 17 17 17 17 17 17 17 17 16 16 16 16 16 16 16 16 16 16
26 26 26 26 25 25 24 24 23 23 22 21 21 21 20 20 19 19 19 18 18 18 18 18 17 17 17 17 17 17 17 17 16 16 16 16 15 15 15 15 15 15 15
25 26 26 26 25 25 24 24 23 22 22 21 21 20 19 19 19 19 18 18 18 18 18 17 17 17 17 17 17 17 17 17 17 16 16 16 16 16 15 15 15 15 15
25 25 25 25 25 24 24 23 23 22 22 21 20 20 20 19 19 19 18 18 17 17 17 17 17 17 17 17 17 17 17 17 17 16 16 16 16 16 15 15 15 15 15
24 24 24 24 23 23 23 22 22 22 21 21 20 20 19 19 18 18 18 18 17 17 17 17 17 17 17 17 17 17 17 17 17 16 16 16 16 16 16 15 15 15 15
22 22 22 22 22 22 22 22 22 21 21 21 20 20 19 19 18 18 18 18 17 17 17 17 17 17 16 16 16 16 16 16 16 16 16 16 16 16 16 16 16 16 15
20 21 21 22 22 22 22 21 21 21 21 21 20 19 19 18 18 18 18 17 17 17 17 17 16 16 16 16 16 16 16 16 16 16 16 16 16 16 16 15 15 15 15
18 19 20 21 22 22 22 22 22 22 21 20 20 19 19 18 18 18 17 17 17 17 16 16 16 16 16 16 16 16 16 16 15 15 15 15 15 15 15 15 15 15 15
17 17 18 19 21 21 21 22 21 21 21 20 19 19 18 18 18 17 17 17 17 16 16 16 16 16 16 16 15 15 15 15 15 15 15 15 15 15 15 15 15 15 15
16 17 18 18 20 20 21 21 21 21 20 20 19 19 18 18 18 17 17 17 17 16 16 16 16 16 15 15 15 15 15 15 15 15 15 14 14 14 14 14 15 15 15
16 17 18 18 19 20 20 20 20 20 20 20 19 19 18 18 18 18 17 17 17 16 16 16 16 16 15 15 15 15 15 14 14 14 14 14 14 14 14 14 14 14 15
17 17 18 19 19 20 20 20 20 20 20 19 19 18 18 18 18 18 17 17 16 16 16 16 16 16 15 15 15 15 14 14 14 14 14 14 14 14 13 13 14 14 14
17 18 19 19 19 20 20 20 20 20 20 19 19 18 18 18 18 18 17 17 16 16 16 16 16 16 15 15 15 15 14 14 14 14 14 13 13 13 13 13 13 13 13
15 17 18 19 19 19 19 19 19 19 19 19 19 18 18 18 17 17 17 17 16 16 16 15 15 15 15 15 15 15 14 14 14 14 13 13 13 13 13 13 13 13 13
15 16 17 18 18 19 19 19 19 19 18 18 18 17 17 17 17 17 17 16 16 16 15 15 15 15 15 15 15 15 15 14 14 14 13 13 13 13 13 13 13 13 13
14 15 16 17 17 17 18 18 18 18 18 17 17 17 16 16 16 16 16 16 16 16 15 15 15 15 15 15 15 15 15 14 14 14 14 13 13 13 13 13 13 13 13
14 15 15 16 16 16 17 17 17 17 17 17 16 16 16 16 16 16 16 16 15 15 15 15 15 15 15 15 15 15 15 15 14 14 14 14 14 13 13 13 13 13 13
15 15 15 15 15 15 16 16 16 16 15 15 15 15 15 15 15 15 15 15 15 15 15 15 15 15 15 15 15 15 15 15 14 14 14 14 14 14 14 13 13 13 13
15 15 15 15 15 15 15 15 15 15 15 14 14 14 14 14 14 14 14 14 14 14 14 14 15 15 15 15 15 14 14 14 14 14 14 14 14 14 14 14 13 13 13
15 15 15 15 15 15 14 14 14 14 13 13 13 13 13 13 13 13 13 13 13 13 13 14 14 14 14 14 14 14 14 14 14 14 14 14 14 14 14 14 13 13 13
15 15 15 15 15 14 14 14 13 13 13 12 12 12 12 12 12 12 12 12 12 12 13 13 13 14 14 14 14 14 14 14 14 14 14 14 14 14 14 13 13 13 13
15 15 15 15 14 14 14 14 13 13 12 12 12 12 12 12 12 12 12 12 12 12 12 12 13 13 13 13 13 13 14 13 13 13 13 13 13 13 13 13 13 13 13
15 15 15 15 15 14 14 14 13 13 13 12 12 12 12 12 11 11 11 12 12 12 12 12 12 12 13 13 13 13 13 13 13 13 13 13 13 13 13 13 13 13 13
15 15 15 15 15 15 14 14 13 13 13 12 12 12 11 11 11 11 11 11 12 12 12 12 12 12 12 12 12 12 12 12 12 12 12 12 13 12 12 12 12 12 12
16 16 15 15 15 15 14 14 13 13 12 12 12 12 11 11 11 11 11 11 11 11 11 11 11 11 11 11 11 12 12 12 12 12 12 12 12 12 12 12 12 12 11
15 16 16 15 15 15 15 14 14 13 13 12 12 12 11 11 11 11 11 11 10 10 11 11 11 11 11 11 11 11 12 12 12 12 12 12 12 12 11 11 11 11 11
Wind_Speed
9 8 12 17 18 16 16 15 13 13 11 8 8 6 6 5 5 5 7 8 8 8 6 6 6 6 6 7 7 5 5 3 3 4 3 3 3 4 5 4 4 5 6
7 6 8 13 17 17 15 15 13 13 12 9 7 5 4 3 4 4 5 7 7 7 7 7 7 7 6 7 7 6 5 3 3 4 4 2 2 2 2 4 6 6 5
8 6 7 11 13 13 14 13 11 11 10 9 7 5 4 3 2 3 4 6 7 7 6 6 6 7 7 7 7 8 8 5 2 3 5 4 4 2 1 3 4 5 5
6 7 10 10 11 10 10 10 10 10 10 10 9 8 6 5 6 4 5 5 5 6 7 6 7 6 6 7 8 8 6 7 5 3 2 3 4 3 2 2 2 4 5
7 10 12 14 13 12 11 10 10 9 9 8 9 8 5 4 3 3 4 5 5 5 6 6 7 7 6 7 8 7 6 6 6 5 4 3 2 2 3 3 2 2 3
4 9 11 14 12 11 10 9 9 8 8 8 8 8 7 6 4 4 4 4 3 4 6 6 7 7 7 7 8 8 8 7 6 5 5 5 4 3 3 2 2 4 4
5 7 10 11 12 11 10 8 9 8 7 7 6 6 7 6 6 5 5 4 2 3 4 5 6 6 7 7 7 8 8 8 8 7 5 5 5 4 4 3 2 3 3
13 7 4 7 10 12 11 11 10 8 7 6 5 5 5 4 3 5 4 4 3 3 3 4 5 5 6 6 6 6 7 6 7 8 7 5 5 5 5 4 4 3 3
14 11 7 3 3 6 8 9 9 7 6 5 4 4 5 5 4 4 3 3 2 2 3 3 4 4 4 5 6 5 6 7 7 7 7 6 5 5 5 5 5 5 5
12 10 6 4 3 2 4 7 7 7 6 6 5 5 6 6 6 5 4 4 3 2 3 3 3 3 3 4 4 4 4 6 6 6 7 7 6 6 5 5 5 4 4
9 6 4 6 6 4 2 4 6 6 6 6 5 6 6 6 6 5 5 4 3 4 4 4 4 4 3 3 4 3 4 5 5 5 7 8 7 7 6 5 5 4 4
9 7 4 5 7 5 3 5 6 6 6 5 5 6 6 5 5 5 5 5 5 4 4 4 4 4 4 4 4 3 4 4 5 5 5 6 6 7 7 6 5 4 4
10 8 5 6 7 5 4 5 5 6 6 5 6 5 4 4 5 5 5 5 5 5 5 5 5 5 4 4 4 4 3 3 3 4 5 5 6 7 6 7 6 4 4
11 9 6 5 5 5 4 4 5 5 5 5 5 4 3 3 4 4 4 5 5 6 6 6 6 6 5 5 5 5 4 4 3 3 3 4 5 6 6 6 7 6 5
14 12 10 8 7 7 6 4 1 1 3 3 3 1 1 2 3 4 4 5 5 6 6 6 6 6 6 6 6 6 6 5 4 4 4 4 6 7 6 5 6 6 5
13 12 11 10 10 9 9 8 7 5 6 6 4 2 1 1 3 3 3 3 4 4 5 6 7 7 7 9 12 9 6 6 6 5 5 5 6 9 10 9 9 9 7
12 12 10 10 10 9 9 10 9 10 10 8 5 4 3 2 3 2 1 1 2 2 3 5 6 7 9 11 13 14 8 7 6 6 5 5 6 9 6 8 10 10 11
10 10 8 8 7 7 9 9 9 9 9 8 7 6 5 4 4 4 4 3 1 1 2 4 5 6 8 12 12 13 8 6 6 6 7 7 6 7 8 7 7 7 8
6 6 5 5 7 7 7 8 8 8 8 7 6 6 5 5 5 5 5 3 2 2 2 2 4 5 7 10 11 9 5 4 5 5 5 7 7 9 10 7 7 7 6
5 4 5 6 6 5 6 8 7 7 6 5 5 5 5 5 5 5 4 3 2 2 2 2 2 3 5 6 8 8 4 4 3 2 2 5 7 7 8 7 7 7 6
4 3 4 4 3 3 5 6 6 5 4 4 5 5 5 5 4 4 4 4 4 4 3 3 2 1 2 3 5 7 4 4 3 2 1 1 4 5 5 6 6 7 5
4 2 2 1 1 1 4 4 5 4 3 3 5 5 6 6 5 6 6 6 6 5 5 4 4 3 2 1 3 7 5 5 4 3 1 2 3 3 3 3 4 4 3
5 3 1 1 2 1 1 3 4 4 3 4 4 4 5 6 6 7 7 6 7 6 5 5 4 4 4 4 3 3 3 3 2 2 3 3 3 2 1 1 2 2 2
6 3 1 1 2 2 1 1 3 4 5 4 3 3 4 5 6 6 6 7 7 7 6 6 5 4 5 5 4 3 3 3 2 1 2 4 4 2 1 1 1 1 2
6 4 2 2 3 3 2 1 2 4 5 3 2 2 2 3 4 5 6 6 6 5 4 4 4 4 4 5 5 2 2 1 1 2 2 1 1 0 1 0 0 0 1
6 5 4 3 4 4 4 2 1 4 4 2 1 1 1 1 2 2 3 7 6 9 10 8 6 5 5 6 6 6 4 2 3 3 2 1 1 0 0 0 0 0 1
Wind_Direction
250 226 195 184 181 180 181 179 174 173 165 164 165 167 181 186 190 195 193 193 192 190 188 199 195 187 182 179 162 145 144 133 123 96 69 31 66 141 165 163 159 167 165
268 250 191 178 178 178 179 177 175 170 167 168 166 163 156 171 190 195 194 199 196 194 197 199 197 191 184 178 169 148 139 142 137 129 112 62 6 14 154 171 176 179 174
238 212 176 169 164 167 170 170 162 154 151 147 131 114 98 94 144 204 211 210 202 198 198 198 199 196 185 184 180 164 151 157 165 149 145 153 200 243 262 209 196 180 178
217 169 147 137 134 132 131 133 132 134 138 142 150 154 164 177 198 199 209 215 205 199 197 190 194 194 192 189 189 177 165 155 164 167 159 149 152 154 199 271 245 210 193
180 151 139 128 120 118 116 119 120 124 133 139 150 153 157 176 181 187 204 214 213 207 198 191 191 192 194 196 193 182 174 169 169 165 156 141 142 135 149 203 237 249 230
123 128 122 118 114 113 115 119 123 130 138 140 147 156 164 171 176 195 209 215 208 205 202 196 198 196 195 196 196 186 184 189 180 175 165 158 159 172 156 167 208 219 237
50 107 119 123 124 125 128 137 144 145 149 147 158 171 176 178 191 202 205 202 203 208 204 193 198 200 199 194 189 189 192 189 189 186 184 174 170 156 151 150 192 220 239
16 27 90 120 135 144 151 158 157 156 158 160 176 188 183 174 191 201 191 191 198 210 201 187 193 200 196 192 187 192 198 193 198 201 190 182 183 169 164 161 162 190 221
11 13 14 33 144 154 158 161 158 157 165 166 169 180 170 165 171 169 165 173 184 184 163 161 168 180 184 186 183 197 204 199 202 202 195 192 190 181 175 169 172 175 195
1 2 359 325 287 208 179 167 162 169 169 161 158 160 163 164 161 150 156 159 159 143 135 135 139 142 152 169 179 191 193 195 201 199 198 200 195 187 178 180 183 181 180
334 324 325 301 294 289 228 194 175 174 173 168 163 158 163 162 155 156 169 167 162 159 157 156 149 148 149 151 159 174 173 186 198 202 203 207 194 186 182 176 176 183 173
316 298 267 260 270 272 249 215 194 185 184 168 163 173 170 163 166 174 182 180 176 178 179 172 169 170 164 157 158 165 167 182 196 201 202 205 195 186 178 174 176 182 178
341 322 304 268 265 276 265 234 209 199 184 169 167 179 173 172 189 195 197 195 190 192 191 187 194 196 187 178 175 168 167 179 190 193 196 195 185 181 175 171 174 180 184
9 0 342 315 299 317 312 260 222 204 180 170 165 170 165 200 218 221 212 206 201 200 204 206 208 205 198 193 189 181 178 182 188 188 186 180 178 175 171 172 173 171 175
20 20 18 16 19 19 14 3 351 139 151 132 109 88 97 239 237 229 224 221 213 212 209 211 215 209 203 206 197 192 190 189 194 197 195 194 194 193 187 181 175 171 177
18 21 26 31 33 34 38 42 46 57 86 87 75 77 87 285 269 255 245 237 236 230 212 211 213 212 219 214 201 194 195 193 197 205 210 216 218 219 216 211 198 187 187
13 18 24 31 37 40 48 49 49 55 64 71 69 54 51 20 336 319 328 286 265 243 227 220 213 218 227 222 209 201 191 195 203 207 209 223 225 222 222 229 228 220 216
10 15 24 38 45 53 57 55 52 57 60 58 52 42 41 30 13 15 6 349 328 274 239 234 227 225 233 228 216 202 192 198 209 211 211 220 234 222 212 216 223 230 233
360 14 31 52 51 49 54 60 54 54 54 46 40 32 33 33 26 16 358 343 334 317 283 255 232 228 243 232 215 192 176 195 213 221 219 216 227 236 220 207 222 237 245
354 21 36 51 52 42 53 56 45 44 41 36 35 30 34 38 23 5 349 338 330 315 315 313 260 230 241 237 215 183 168 184 198 227 243 224 220 231 210 197 206 228 243
339 25 52 54 41 45 60 50 31 13 356 24 38 34 30 29 19 5 358 353 358 8 10 14 11 356 239 232 199 170 165 177 174 186 225 247 216 212 206 196 204 227 231
322 351 41 23 353 52 68 42 5 337 356 41 46 37 28 24 23 19 14 14 19 25 21 25 24 15 10 102 169 165 164 160 158 171 188 211 178 172 189 199 219 230 213
307 303 271 277 313 340 78 29 338 350 45 66 59 44 37 33 30 31 25 21 20 23 18 23 26 19 18 29 62 117 138 135 138 167 178 173 152 122 120 223 198 150 141
313 308 308 263 273 290 277 334 349 35 76 82 76 54 51 43 37 36 31 32 23 19 19 23 26 27 24 21 23 45 70 86 89 85 101 110 103 84 359 9 52 119 159
315 309 284 242 228 218 231 298 51 80 87 87 76 58 63 72 59 52 40 34 30 21 22 23 28 32 28 6 13 53 66 90 137 113 94 87 77 12 345 330 284 156 123
320 314 295 257 224 208 220 238 116 115 113 95 65 15 56 100 113 94 62 37 36 35 43 47 49 38 31 23 37 43 44 63 120 110 98 88 80 88 232 191 86 88 117
Height
1475 1476 1477 1479 1482 1486 1490 1492 1495 1498 1501 1503 1506 1508 1510 1512 1514 1516 1518 1520 1521 1522 1523 1525 1527 1529 1530 1532 1534 1535 1537 1539 1540 1542 1543 1543 1543 1543 1544 1544 1545 1545 1545
1471 1472 1473 1475 1478 1481 1486 1489 1492 1494 1497 1500 1503 1506 1508 1510 1512 1513 1515 1517 1518 1519 1521 1522 1523 1525 1527 1528 1530 1532 1534 1536 1538 1539 1541 1542 1544 1543 1543 1543 1544 1545 1545
1467 1468 1469 1471 1474 1478 1482 1486 1489 1492 1496 1499 1501 1504 1506 1507 1509 1510 1511 1513 1514 1516 1517 1518 1520 1521 1523 1524 1526 1528 1530 1532 1534 1536 1538 1539 1540 1541 1542 1542 1543 1544 1545
1463 1464 1465 1468 1472 1477 1481 1485 1488 1491 1494 1497 1499 1501 1503 1504 1505 1506 1508 1510 1511 1512 1513 1515 1516 1517 1519 1520 1522 1524 1526 1528 1530 1532 1534 1536 1537 1538 1539 1541 1541 1542 1543
1459 1461 1463 1466 1472 1477 1482 1486 1489 1491 1493 1496 1497 1499 1500 1502 1503 1504 1505 1506 1507 1508 1509 1511 1512 1513 1514 1516 1518 1519 1521 1524 1526 1528 1530 1532 1534 1535 1536 1537 1539 1540 1541
1459 1461 1463 1466 1472 1478 1482 1486 1488 1490 1492 1494 1495 1496 1498 1499 1500 1501 1502 1503 1504 1505 1506 1507 1508 1509 1510 1512 1513 1515 1517 1519 1521 1524 1525 1527 1529 1531 1533 1534 1536 1537 1539
1462 1463 1465 1468 1472 1477 1481 1485 1488 1489 1490 1492 1493 1495 1496 1497 1499 1500 1501 1501 1502 1503 1503 1503 1504 1505 1506 1507 1509 1511 1512 1513 1516 1519 1521 1523 1525 1527 1529 1531 1533 1535 1537
1468 1468 1468 1469 1472 1476 1479 1483 1485 1487 1489 1490 1492 1493 1495 1496 1497 1498 1499 1499 1500 1500 1500 1501 1501 1501 1502 1503 1504 1505 1507 1509 1511 1513 1516 1518 1521 1523 1525 1527 1530 1532 1534
1474 1473 1473 1473 1475 1477 1479 1481 1484 1486 1488 1490 1491 1493 1494 1495 1496 1497 1497 1498 1498 1498 1498 1498 1498 1498 1499 1499 1500 1501 1503 1504 1505 1508 1510 1512 1515 1518 1520 1523 1525 1528 1530
1477 1477 1477 1478 1478 1480 1481 1483 1485 1486 1488 1489 1491 1493 1494 1495 1495 1496 1496 1496 1496 1497 1497 1496 1496 1496 1496 1497 1497 1498 1499 1500 1501 1503 1505 1506 1509 1512 1515 1517 1520 1523 1526
1479 1478 1479 1480 1480 1481 1482 1484 1485 1486 1488 1489 1491 1492 1493 1494 1495 1495 1495 1495 1495 1495 1495 1495 1495 1495 1495 1495 1495 1495 1495 1496 1497 1499 1500 1502 1504 1507 1509 1512 1515 1518 1521
1480 1478 1477 1478 1480 1480 1482 1483 1485 1486 1488 1490 1491 1492 1493 1493 1494 1494 1494 1494 1494 1495 1495 1495 1495 1494 1494 1494 1494 1493 1493 1494 1495 1496 1497 1498 1500 1501 1504 1506 1509 1513 1516
1480 1478 1477 1477 1478 1479 1481 1482 1484 1486 1488 1489 1490 1491 1492 1493 1494 1494 1494 1494 1494 1494 1494 1494 1494 1494 1494 1494 1493 1493 1493 1493 1493 1494 1494 1495 1496 1497 1500 1502 1505 1508 1511
1482 1479 1477 1477 1477 1478 1479 1480 1482 1484 1486 1488 1489 1490 1491 1493 1494 1494 1494 1493 1493 1493 1493 1494 1494 1494 1494 1493 1493 1493 1492 1492 1492 1493 1493 1494 1495 1496 1498 1500 1502 1504 1507
1486 1482 1480 1478 1478 1478 1479 1480 1481 1482 1485 1487 1487 1489 1490 1492 1492 1492 1492 1492 1491 1491 1491 1492 1492 1493 1493 1492 1492 1492 1492 1492 1492 1493 1493 1494 1495 1496 1497 1498 1500 1502 1504
1491 1488 1485 1483 1481 1481 1481 1480 1481 1482 1483 1485 1485 1486 1487 1488 1489 1489 1490 1489 1489 1489 1489 1489 1490 1490 1491 1491 1491 1491 1492 1492 1492 1493 1493 1494 1495 1496 1497 1498 1499 1501 1502
1495 1492 1490 1488 1487 1485 1484 1483 1483 1482 1483 1483 1484 1485 1486 1486 1486 1486 1486 1486 1486 1486 1486 1486 1486 1487 1488 1489 1489 1490 1490 1491 1491 1492 1493 1493 1494 1495 1496 1497 1498 1499 1500
1500 1497 1495 1494 1492 1490 1489 1487 1486 1485 1484 1484 1484 1484 1483 1482 1482 1482 1482 1482 1481 1482 1482 1482 1483 1483 1484 1485 1486 1487 1488 1489 1490 1491 1492 1492 1493 1494 1495 1495 1496 1497 1497
1504 1502 1500 1498 1496 1493 1492 1490 1488 1486 1485 1484 1483 1483 1482 1481 1480 1479 1478 1477 1477 1478 1478 1479 1479 1479 1480 1481 1483 1484 1485 1486 1487 1489 1490 1490 1491 1492 1492 1493 1493 1494 1494
1506 1504 1503 1500 1498 1496 1494 1492 1490 1488 1486 1485 1484 1483 1481 1480 1478 1476 1475 1474 1474 1474 1474 1474 1475 1476 1477 1478 1479 1480 1482 1483 1484 1486 1487 1488 1489 1490 1490 1490 1490 1490 1491
1508 1506 1504 1502 1500 1499 1496 1494 1492 1490 1489 1487 1485 1483 1481 1479 1477 1475 1473 1472 1471 1471 1471 1471 1472 1472 1473 1474 1475 1477 1478 1480 1482 1483 1485 1486 1487 1487 1487 1487 1487 1487 1487
1508 1507 1505 1503 1502 1500 1498 1496 1493 1492 1490 1489 1486 1484 1482 1479 1477 1475 1473 1472 1471 1470 1470 1470 1470 1470 1471 1472 1473 1474 1476 1477 1479 1481 1482 1483 1484 1484 1484 1484 1484 1484 1484
1508 1507 1506 1505 1503 1502 1500 1497 1495 1493 1492 1490 1488 1486 1484 1481 1479 1477 1475 1473 1472 1471 1470 1469 1469 1469 1469 1469 1470 1472 1473 1475 1477 1478 1479 1480 1481 1481 1481 1481 1481 1481 1481
1508 1507 1506 1505 1504 1503 1501 1499 1497 1495 1493 1492 1490 1488 1486 1484 1482 1479 1477 1476 1474 1472 1471 1470 1469 1469 1469 1469 1470 1471 1472 1473 1474 1476 1477 1478 1478 1478 1478 1479 1479 1479 1479
1508 1507 1506 1505 1504 1503 1502 1500 1498 1496 1495 1493 1491 1490 1488 1486 1484 1482 1480 1478 1476 1475 1473 1472 1471 1470 1469 1469 1470 1470 1471 1472 1473 1474 1475 1476 1476 1476 1476 1477 1477 1477 1478
1507 1506 1505 1505 1504 1503 1502 1501 1499 1497 1495 1494 1492 1491 1489 1487 1486 1484 1482 1480 1478 1477 1475 1474 1472 1471 1471 1470 1470 1471 1471 1472 1472 1473 1474 1474 1475 1475 1475 1475 1476 1476 1476